| time (UTC) | temp F | wind direction | speed knots | gust knots | rain 1hr in | rain 24hr in | rain mn in | humidity % | barometer mb |
| 20260502194556 | 55 | 0 | 0.0 | 1.7 | 0.00 | 0.00 | 0.00 | 58 | 1013.5 |
| 20260502193101 | 55 | 0 | 0.0 | 2.6 | 0.00 | 0.00 | 0.00 | 57 | 1013.4 |
| 20260502191556 | 56 | 0 | 0.0 | 1.7 | 0.00 | 0.00 | 0.00 | 57 | 1013.4 |
| 20260502190055 | 57 | 0 | 0.0 | 3.5 | 0.00 | 0.00 | 0.00 | 55 | 1013.4 |
| 20260502184556 | 58 | 79 | 0.9 | 6.1 | 0.00 | 0.00 | 0.00 | 53 | 1013.3 |
| 20260502183056 | 60 | 0 | 0.0 | 1.7 | 0.00 | 0.00 | 0.00 | 46 | 1013.2 |
| 20260502181552 | 61 | 0 | 0.9 | 3.5 | 0.00 | 0.00 | 0.00 | 45 | 1013.2 |
| 20260502163057 | 63 | 251 | 0.9 | 4.3 | 0.00 | 0.00 | 0.00 | 44 | 1013.6 |
| 20260502161551 | 64 | 195 | 1.7 | 5.2 | 0.00 | 0.00 | 0.00 | 43 | 1013.6 |
| 20260502151607 | 66 | 173 | 2.6 | 7.8 | 0.00 | 0.00 | 0.00 | 40 | 1014.3 |
| 20260502123043 | 66 | 255 | 1.7 | 6.1 | 0.00 | 0.00 | 0.00 | 42 | 1015.3 |
| 20260502121542 | 67 | 223 | 0.9 | 5.2 | 0.00 | 0.00 | 0.00 | 40 | 1015.4 |
| 20260502114546 | 65 | 249 | 1.7 | 9.6 | 0.00 | 0.00 | 0.00 | 44 | 1015.3 |
| 20260502113046 | 66 | 230 | 1.7 | 10.4 | 0.00 | 0.00 | 0.00 | 42 | 1015.5 |
| 20260502111545 | 62 | 244 | 0.9 | 7.8 | 0.00 | 0.00 | 0.00 | 47 | 1015.6 |
| 20260502110053 | 65 | 224 | 0.9 | 8.7 | 0.00 | 0.00 | 0.00 | 43 | 1015.5 |
| 20260502104602 | 62 | 0 | 0.9 | 7.8 | 0.00 | 0.00 | 0.00 | 47 | 1015.6 |
| 20260502103054 | 64 | 253 | 0.0 | 7.8 | 0.00 | 0.00 | 0.00 | 45 | 1015.5 |
| 20260502101602 | 64 | 221 | 1.7 | 6.1 | 0.00 | 0.00 | 0.00 | 46 | 1015.6 |
| 20260502070113 | 54 | 0 | 1.7 | 6.1 | 0.00 | 0.00 | 0.00 | 60 | 1015.9 |
| 20260502064550 | 53 | 267 | 1.7 | 6.1 | 0.00 | 0.00 | 0.00 | 63 | 1016.0 |
| 20260502063057 | 52 | 264 | 1.7 | 7.0 | 0.00 | 0.00 | 0.00 | 65 | 1016.3 |
| 20260502061549 | 50 | 0 | 0.9 | 3.5 | 0.00 | 0.00 | 0.00 | 65 | 1016.1 |
| 20260502060052 | 50 | 205 | 0.0 | 3.5 | 0.00 | 0.00 | 0.00 | 65 | 1016.1 |
| 20260502054605 | 50 | 237 | 0.9 | 5.2 | 0.00 | 0.00 | 0.00 | 65 | 1016.1 |
| 20260502053054 | 50 | 233 | 0.9 | 4.3 | 0.00 | 0.00 | 0.00 | 65 | 1016.2 |
| 20260502051554 | 49 | 182 | 1.7 | 3.5 | 0.00 | 0.00 | 0.00 | 65 | 1016.2 |
| 20260502050054 | 49 | 205 | 1.7 | 4.3 | 0.00 | 0.00 | 0.00 | 65 | 1016.3 |
| 20260502044550 | 49 | 213 | 0.9 | 3.5 | 0.00 | 0.00 | 0.00 | 65 | 1016.3 |
| 20260502043105 | 49 | 0 | 0.0 | 2.6 | 0.00 | 0.00 | 0.00 | 65 | 1016.2 |
| 20260502041610 | 49 | 197 | 0.0 | 1.7 | 0.00 | 0.00 | 0.00 | 64 | 1016.2 |
| 20260502040104 | 49 | 197 | 0.0 | 0.9 | 0.00 | 0.00 | 0.00 | 64 | 1016.2 |
| 20260502034546 | 49 | 0 | 0.0 | 0.9 | 0.00 | 0.00 | 0.00 | 64 | 1016.2 |
| 20260502033053 | 49 | 0 | 0.0 | 2.6 | 0.00 | 0.00 | 0.00 | 64 | 1016.3 |
| 20260502031549 | 49 | 0 | 0.0 | 2.6 | 0.00 | 0.00 | 0.00 | 64 | 1016.2 |
| 20260502030109 | 49 | 258 | 1.7 | 5.2 | 0.00 | 0.00 | 0.00 | 64 | 1016.2 |
| 20260502024602 | 50 | 0 | 0.9 | 5.2 | 0.00 | 0.00 | 0.00 | 64 | 1016.3 |
| 20260502023124 | 50 | 178 | 0.0 | 5.2 | 0.00 | 0.00 | 0.00 | 64 | 1016.6 |
| 20260502021550 | 50 | 191 | 0.9 | 5.2 | 0.00 | 0.00 | 0.00 | 63 | 1016.8 |
| 20260502020046 | 51 | 223 | 1.7 | 5.2 | 0.00 | 0.00 | 0.00 | 63 | 1016.8 |
| 20260502014551 | 51 | 199 | 1.7 | 6.1 | 0.00 | 0.00 | 0.00 | 63 | 1016.8 |
| 20260502013053 | 52 | 234 | 1.7 | 4.3 | 0.00 | 0.00 | 0.00 | 63 | 1017.0 |
| 20260502011602 | 52 | 0 | 0.0 | 2.6 | 0.00 | 0.00 | 0.00 | 63 | 1017.1 |
| 20260502010052 | 52 | 184 | 1.7 | 8.7 | 0.00 | 0.00 | 0.00 | 63 | 1017.2 |
| 20260502004548 | 52 | 212 | 1.7 | 7.0 | 0.00 | 0.00 | 0.00 | 63 | 1017.4 |
| 20260502003046 | 52 | 206 | 1.7 | 8.7 | 0.00 | 0.00 | 0.00 | 63 | 1017.3 |
| 20260502001557 | 52 | 205 | 0.9 | 4.3 | 0.00 | 0.00 | 0.00 | 64 | 1017.5 |
| 20260502000058 | 53 | 0 | 0.0 | 0.9 | 0.00 | 0.00 | 0.00 | 64 | 1017.6 |
| 20260501234553 | 53 | 207 | 1.7 | 4.3 | 0.00 | 0.00 | 0.00 | 63 | 1017.6 |
| 20260501233104 | 54 | 0 | 0.9 | 2.6 | 0.00 | 0.00 | 0.00 | 62 | 1017.6 |
| 20260501231605 | 54 | 228 | 0.9 | 6.1 | 0.00 | 0.00 | 0.00 | 62 | 1017.6 |
| 20260501230113 | 55 | 243 | 0.0 | 2.6 | 0.00 | 0.00 | 0.00 | 62 | 1017.7 |
| 20260501224556 | 56 | 245 | 0.0 | 1.7 | 0.00 | 0.00 | 0.00 | 59 | 1017.7 |
| 20260501223055 | 56 | 217 | 0.9 | 3.5 | 0.00 | 0.00 | 0.00 | 59 | 1017.7 |
| 20260501221542 | 56 | 225 | 1.7 | 5.2 | 0.00 | 0.00 | 0.00 | 59 | 1017.6 |
| 20260501220105 | 56 | 207 | 1.7 | 6.1 | 0.00 | 0.00 | 0.00 | 59 | 1017.7 |
| 20260501214547 | 57 | 215 | 0.9 | 4.3 | 0.00 | 0.00 | 0.00 | 57 | 1017.7 |
| 20260501213047 | 57 | 228 | 0.9 | 4.3 | 0.00 | 0.00 | 0.00 | 57 | 1017.7 |
| 20260501211544 | 58 | 196 | 1.7 | 3.5 | 0.00 | 0.00 | 0.00 | 56 | 1017.8 |
| 20260501210051 | 58 | 224 | 0.9 | 4.3 | 0.00 | 0.00 | 0.00 | 56 | 1017.7 |
| 20260501204551 | 58 | 199 | 2.6 | 6.1 | 0.00 | 0.00 | 0.00 | 56 | 1017.8 |
| 20260501203048 | 59 | 0 | 1.7 | 5.2 | 0.00 | 0.00 | 0.00 | 55 | 1017.9 |
| 20260501201547 | 59 | 223 | 0.0 | 3.5 | 0.00 | 0.00 | 0.00 | 54 | 1017.9 |
| 20260501200046 | 60 | 0 | 0.0 | 3.5 | 0.00 | 0.00 | 0.00 | 52 | 1017.7 |